STARLINK-1365 (45590 NORAD) Tracking and Keplerian Element Data

This shows tracking and keplerian element data for the satellite.

Feedback or suggestion? Click here.




ElementValue
Catalog45590
NameSTARLINK-1365
Epoch Orbit570
Epoch Day145.66667824
Epoch Year2020
RAAN242.9343
Inclination52.9993
Eccentricity0.0002827
Argument of Perigee1.2838
Mean Anonmoly293.6756
Mean Motion15.41094708
Decay Rate0.04124327
L11 45590U 20025BM 20145.66667824 .04124327 00000-0 84661-1 0 9998
L22 45590 52.9993 242.9343 0002827 1.2838 293.6756 15.41094708 5709

Live tracking and technical data element details for STARLINK-1365 (NORAD 45590). STARLINK-1365 can be tracked NOW for your location showing map with azimuth and elevation plus other details from your city location.

Track the satellite on the map from your city or location and see movement details for azimuth, elevation, latitude, longitude, range, height, and movement on the map or in text.







IsCatalogInMostPopularTable: catalog: 45590, numindb: 33
Update: records affected: 1



GetName: 45590 STARLINK-1365

Hit Count: updated at: Tue, 26 May 2020 02:19:57 GMT